Location: Damada
(14.7329°N, 3.1761°W)
Time: 07:55:44
(UTC+00:00)

CZ-2C R/B - Pass Details

Date: 18 February 2020
Orbit: 641 x 704 km, 98.4° (Epoch: 30 March)

Event Time Altitude Azimuth Distance (km) Brightness Sun altitude
Exits shadow 19:43:32 20° 16° (NNE) 1,559 5.4 -21.3°
Maximum altitude 19:46:45 82° 101° (E) 701 3.6 -22.1°
Drops below altitude 10° 19:51:28 10° 190° (S) 2,151 6.5 -23.2°
Sets 19:53:44 0° 191° (S) 3,073 7.3 -23.7°
